Showing default

OPTICUBE 04, 41851

Orbit data source: Space-Track

OPTICUBE 04, 41851 is an American payload satellite in SSO that was launched on Fri, 11 Nov 2016 UTC via an ATLAS V 401 launch vehicle from the Air Force Western Test Range (AFWTR). Payload-class satellites include a variety of spacecraft equipped with specific instruments for various scientific and technological missions. These include communications satellites like Starlink; space stations such as the ISS; scientific satellites like the Hubble; Earth observation satellites from companies like Planet Labs, Umbra, and HawkEye 360; GPS; miniature CubeSats for education and research; and military/defense satellites.

Loading next visibility...
Identifier
41851, 2016-067D
Orbit
SSO
Country
Flag of USUS
Related business
Manufacturer
Cal Poly
Mission
Operational Defense Calibration
Bus & Motor
CUBESAT 2U, Unknown motor
Mass
4 kg wet, 4 kg dry
Launch date (UTC)
2016-11-11 (9 years ago)
Launch vehicle
ATLAS V 401
Launch site
Air Force Western Test Range (AFWTR)
Object type
Payload
Rocket body
Debris
Shape & HBR
Box, 0.1 m
Radar Cross Section
0.035 m², Small (<0.1 m²)

Expand to show TLE details & history
Last TLE update: 9 hours ago

TLE from 9 hours ago
0 OPTICUBE 04
1 41851U 16067D   25294.75813259  .00005369  00000-0  35170-3 0  9993
2 41851  98.0872 129.5019 0015613 199.5746 160.4883 15.08089944489211
Epoch: 2025-10-21T18:11Z
TLE epoch observation values (Epoch: 2025-10-21T18:11:42.655Z)
Latitude
-0.00006°
Longitude
-173.86732°
Altitude
555.279 km
Speed
7.578 km/s
True Right ascension
08h 38m 00s
True Declination
0° 00' 00"
Sunlit
Object was in daylight at epoch
Visualization orbit readout
Latitude
Unknown
Longitude
Unknown
Altitude
Unknown
Speed
Unknown
Apparent Right ascension
Unknown
Apparent Declination
Unknown
Sunlit
N/A
Visualization observer readout
Local Sidereal Time
22:43:46
Azimuth
Unknown
Elevation
Unknown
Doppler factor
Unknown
Orbital elements
Apogee altitude
549.849 km
Perigee altitude
528.249 km
Semi-major axis
6,917.186 km
Eccentricity
0.00156
Inclination
98.0872°
RAAN
129.5019°
Arg. of periapsis
199.5746°
True anomaly
160.54795°
Mean anomaly
160.4883°
Eccentric anomaly
160.51813°
Mean motion
3.77267 °/min
Orbital period
95.42 mins
BSTAR
0.0003517
Loading maneuver chart data...
Computing Atmospheric mass density...
Loading historical data...
Loading historical data...
Loading historical data...
Loading historical data...
Loading historical data...
Loading historical data...
Loading historical data...

Documentation

Showing up to 5 results
|